This demonstration page uses our WeatherBlox Daily Observations layout. Learn more.

Left ArrowRight Arrow

Hourly Observations for March 12, 2020

Temp ( °F °C ) Dew Point ( °F °C ) Humidity (%) Winds ( mph kmh ) Pressure ( in mb ) Visibility ( mi km ) Precip ( " mm )
12:53 am 00:53 Clear 50 10 44 6.7 80 80 Calm 29.99 1016 10 16 0.00 0.00
1:53 am 01:53 Clear 51 10.6 44 6.7 77 77 Calm 29.99 1016 10 16 0.00 0.00
2:53 am 02:53 Clear 47 8.3 42 5.6 83 83 SE 6 9 29.99 1016 10 16 0.00 0.00
3:53 am 03:53 Clear 47 8.3 42 5.6 83 83 Calm 29.98 1015 10 16 0.00 0.00
4:53 am 04:53 Clear 44 6.7 40 4.4 85 85 Calm 29.96 1015 10 16 0.00 0.00
5:53 am 05:53 Clear 51 10.6 38 3.3 61 61 NW 6 9 29.96 1015 10 16 0.00 0.00
6:53 am 06:53 Clear 57 13.9 35 1.7 44 44 NNW 8 13 29.96 1014 10 16 0.00 0.00
7:53 am 07:53 Sunny 59 15 33 0.6 38 38 NNW 7 11 29.96 1015 10 16 0.00 0.00
8:53 am 08:53 Sunny 63 17.2 29 -1.7 28 28 N 15 24 29.96 1014 10 16 0.00 0.00
9:53 am 09:53 Sunny 67 19.4 27 -2.8 22 22 N 20 31 29.95 1014 10 16 0.00 0.00
10:53 am 10:53 Sunny 69 20.6 24 -4.4 18 18 N 24 39 29.92 1013 10 16 0.00 0.00
11:53 am 11:53 Sunny 72 22.2 22 -5.6 15 15 N 23 37 29.89 1012 10 16 0.00 0.00
12:53 pm 12:53 Sunny 75 23.9 22 -5.6 14 14 N 29 46 29.87 1012 10 16 0.00 0.00
1:53 pm 13:53 Sunny 76 24.4 23 -5 14 14 N 28 44 29.83 1010 10 16 0.00 0.00
2:53 pm 14:53 Sunny 79 26.1 23 -5 12 12 N 21 33 29.79 1009 10 16 0.00 0.00
3:53 pm 15:53 Sunny 80 26.7 22 -5.6 11 11 N 18 30 29.76 1008 10 16 0.00 0.00
4:53 pm 16:53 Sunny 80 26.7 24 -4.4 13 13 NNE 16 26 29.74 1007 10 16 0.00 0.00
5:53 pm 17:53 Sunny 79 26.1 25 -3.9 14 14 N 15 24 29.72 1007 10 16 0.00 0.00
6:53 pm 18:53 Sunny 77 25 24 -4.4 14 14 N 14 22 29.72 1006 10 16 0.00 0.00
7:53 pm 19:53 Clear 73 22.8 25 -3.9 17 17 NNW 8 13 29.72 1007 10 16 0.00 0.00
8:53 pm 20:53 Clear 71 21.7 26 -3.3 19 19 N 10 17 29.73 1007 10 16 0.00 0.00
9:53 pm 21:53 Clear 68 20 26 -3.3 21 21 N 8 13 29.74 1007 10 16 0.00 0.00
10:53 pm 22:53 Clear 68 20 23 -5 18 18 NNW 10 17 29.74 1007 10 16 0.00 0.00
11:53 pm 23:53 Clear 67 19.4 23 -5 19 19 undefined N/A 29.74 1007 10 16 0.00 0.00

Powered by AerisWeather